WA4FG Weather Reports


Display with metric or nautical units.
time (UTC)temp
F
wind
direction
speed
MPH
gust
MPH
rain 1hr
in
rain 24hr
in
rain mn
in
humidity
%
barometer
mb
20260905190223 98 187 0.0 0.0 0.00 0.00 0.00 49 1011.8
20260905185204 98 189 0.0 4.0 0.00 0.00 0.00 46 1012.0
20260905184627 98 189 0.0 4.0 0.00 0.00 0.00 45 1012.1
20260905183600 97 169 0.0 0.0 0.00 0.00 0.00 50 1012.2
20260905183052 97 169 0.0 0.0 0.00 0.00 0.00 52 1012.3
20260905182548 97 169 0.0 2.0 0.00 0.00 0.00 50 1012.4
20260905182039 97 169 0.0 2.0 0.00 0.00 0.00 50 1012.6
20260905181022 98 190 0.0 8.0 0.00 0.00 0.00 46 1012.7
20260905180443 98 200 0.0 4.0 0.00 0.00 0.00 47 1012.7
20260905175407 97 180 0.0 0.0 0.00 0.00 0.00 51 1012.9
20260905174907 97 180 0.0 0.0 0.00 0.00 0.00 49 1013.0
20260905174348 97 184 0.0 2.0 0.00 0.00 0.00 47 1013.0
20260905173845 97 182 0.0 2.0 0.00 0.00 0.00 48 1013.1
20260905173323 97 114 0.0 0.0 0.00 0.00 0.00 48 1013.1
20260905172758 97 223 0.0 0.0 0.00 0.00 0.00 50 1013.3
20260905172229 97 231 0.0 0.0 0.00 0.00 0.00 50 1013.4
20260905170657 96 230 0.0 1.0 0.00 0.00 0.00 52 1013.6
20260905170153 95 183 0.0 1.0 0.00 0.00 0.00 52 1013.6
20260905165652 95 184 0.0 0.0 0.00 0.00 0.00 52 1013.7
20260905165152 95 154 0.0 0.0 0.00 0.00 0.00 52 1013.7
20260905164625 96 113 0.0 0.0 0.00 0.00 0.00 53 1013.8
20260905164108 96 113 0.0 1.0 0.00 0.00 0.00 55 1013.8
20260905163606 96 136 0.0 0.0 0.00 0.00 0.00 52 1013.9
20260905163043 95 179 0.0 0.0 0.00 0.00 0.00 54 1013.9
20260905161459 96 177 0.0 0.0 0.00 0.00 0.00 54 1014.0
20260905161012 96 286 0.0 0.0 0.00 0.00 0.00 54 1014.2
20260905160458 96 286 0.0 0.0 0.00 0.00 0.00 53 1014.1
20260905160004 95 294 0.0 0.0 0.00 0.00 0.00 55 1014.1
20260905155450 95 294 0.0 0.0 0.00 0.00 0.00 58 1014.1
20260905154408 94 166 0.0 0.0 0.00 0.00 0.00 57 1014.0
20260905153905 94 157 0.0 0.0 0.00 0.00 0.00 57 1014.1
20260905153405 93 157 0.0 0.0 0.00 0.00 0.00 60 1014.1
20260905152857 92 157 0.0 0.0 0.00 0.00 0.00 59 1014.0
20260905152355 92 157 0.0 0.0 0.00 0.00 0.00 61 1014.0
20260905151352 92 165 0.0 1.0 0.00 0.00 0.00 62 1014.1
20260905150855 92 198 0.0 0.0 0.00 0.00 0.00 66 1014.1
20260905145831 90 223 0.0 0.0 0.00 0.00 0.00 65 1014.1
20260905145331 90 223 0.0 0.0 0.00 0.00 0.00 68 1014.1
20260905144830 89 223 0.0 0.0 0.00 0.00 0.00 72 1014.1
20260905144328 88 223 0.0 0.0 0.00 0.00 0.00 70 1014.2
20260905143805 87 223 0.0 0.0 0.00 0.00 0.00 77 1014.2
20260905143300 86 223 0.0 0.0 0.00 0.00 0.00 79 1014.3
20260905142735 85 223 0.0 0.0 0.00 0.00 0.00 78 1014.4
20260905142212 84 223 0.0 0.0 0.00 0.00 0.00 80 1014.4
20260905141711 83 223 0.0 0.0 0.00 0.00 0.00 86 1014.4
20260905141159 83 223 0.0 0.0 0.00 0.00 0.00 87 1014.4
20260905140633 82 223 0.0 0.0 0.00 0.00 0.00 87 1014.4
20260905140133 81 223 0.0 0.0 0.00 0.00 0.00 88 1014.5
20260905135627 80 274 0.0 0.0 0.00 0.00 0.00 91 1014.5
20260905135126 80 274 0.0 0.0 0.00 0.00 0.00 91 1014.5
20260905134624 79 274 0.0 0.0 0.00 0.00 0.00 91 1014.6
20260905134139 79 274 0.0 0.0 0.00 0.00 0.00 93 1014.5
20260905133558 78 274 0.0 0.0 0.00 0.00 0.00 94 1014.5
20260905132553 77 274 0.0 0.0 0.00 0.00 0.00 95 1014.5
20260905132103 77 274 0.0 0.0 0.00 0.00 0.00 97 1014.4
20260905131527 76 274 0.0 0.0 0.00 0.00 0.00 97 1014.6
20260905131028 76 274 0.0 0.0 0.00 0.00 0.00 98 1014.6
20260905130501 76 274 0.0 0.0 0.00 0.00 0.00 98 1014.7
20260905125958 75 274 0.0 0.0 0.00 0.00 0.00 99 1014.8
20260905125433 75 274 0.0 0.0 0.00 0.00 0.00 99 1014.7
20260905124401 74 274 0.0 0.0 0.00 0.00 0.00 99 1014.7
20260905123851 74 274 0.0 0.0 0.00 0.00 0.00 99 1014.7
20260905122319 74 274 0.0 0.0 0.00 0.00 0.00 99 1014.7
20260905121817 74 274 0.0 0.0 0.00 0.00 0.00 99 1014.7
20260905121301 74 274 0.0 0.0 0.00 0.00 0.00 99 1014.6
20260905120802 74 274 0.0 0.0 0.00 0.00 0.00 98 1014.5
20260905115754 74 274 0.0 0.0 0.00 0.00 0.00 98 1014.4
20260905114704 74 274 0.0 0.0 0.00 0.00 0.00 98 1014.4
20260905114158 73 274 0.0 0.0 0.00 0.00 0.00 98 1014.3
20260905113640 73 274 0.0 0.0 0.00 0.00 0.00 98 1014.3
20260905112609 74 274 0.0 0.0 0.00 0.00 0.00 97 1014.3
20260905112044 74 274 0.0 0.0 0.00 0.00 0.00 97 1014.3
20260905111526 74 274 0.0 0.0 0.00 0.00 0.00 97 1014.3
20260905111023 74 274 0.0 0.0 0.00 0.00 0.00 97 1014.2
20260905110522 74 274 0.0 0.0 0.00 0.00 0.00 97 1014.2
20260905110019 74 274 0.0 0.0 0.00 0.00 0.00 97 1014.2
20260905105516 74 274 0.0 0.0 0.00 0.00 0.00 97 1014.1
20260905104423 74 274 0.0 0.0 0.00 0.00 0.00 97 1014.1
20260905103918 74 274 0.0 0.0 0.00 0.00 0.00 97 1014.1
20260905103409 74 274 0.0 0.0 0.00 0.00 0.00 97 1014.1
20260905102906 74 274 0.0 0.0 0.00 0.00 0.00 96 1014.1
20260905102339 74 274 0.0 0.0 0.00 0.00 0.00 96 1014.1
20260905101835 74 274 0.0 0.0 0.00 0.00 0.00 96 1014.1
20260905095750 74 274 0.0 0.0 0.00 0.00 0.00 96 1014.1
20260905095248 74 274 0.0 0.0 0.00 0.00 0.00 96 1014.0
20260905094729 75 274 0.0 0.0 0.00 0.00 0.00 96 1013.9
20260905093715 75 274 0.0 0.0 0.00 0.00 0.00 95 1013.9
20260905093215 75 274 0.0 0.0 0.00 0.00 0.00 95 1013.9
20260905092707 75 274 0.0 0.0 0.00 0.00 0.00 95 1013.9
20260905092127 75 274 0.0 0.0 0.00 0.00 0.00 95 1013.9
20260905090112 75 274 0.0 0.0 0.00 0.00 0.00 95 1014.1
20260905085611 75 274 0.0 0.0 0.00 0.00 0.00 94 1013.9
20260905085045 75 274 0.0 0.0 0.00 0.00 0.00 94 1013.9
20260905084544 75 274 0.0 0.0 0.00 0.00 0.00 94 1013.9
20260905084055 75 274 0.0 0.0 0.00 0.00 0.00 94 1013.9
20260905083541 75 274 0.0 0.0 0.00 0.00 0.00 94 1014.0
20260905083038 75 274 0.0 0.0 0.00 0.00 0.00 94 1013.9
20260905082538 75 274 0.0 0.0 0.00 0.00 0.00 94 1013.7
20260905082029 75 274 0.0 0.0 0.00 0.00 0.00 94 1013.7
20260905081527 75 274 0.0 0.0 0.00 0.00 0.00 93 1013.7
20260905081001 75 274 0.0 0.0 0.00 0.00 0.00 93 1013.7
20260905080500 75 274 0.0 0.0 0.00 0.00 0.00 93 1013.6
20260905080001 75 274 0.0 0.0 0.00 0.00 0.00 93 1013.6
20260905075420 75 274 0.0 0.0 0.00 0.00 0.00 93 1013.7
20260905074922 76 274 0.0 0.0 0.00 0.00 0.00 92 1013.6
20260905074413 76 274 0.0 0.0 0.00 0.00 0.00 92 1013.5
20260905073902 76 274 0.0 0.0 0.00 0.00 0.00 92 1013.5
20260905073401 76 274 0.0 0.0 0.00 0.00 0.00 92 1013.5
20260905072352 76 274 0.0 0.0 0.00 0.00 0.00 91 1013.4
20260905071858 76 274 0.0 0.0 0.00 0.00 0.00 91 1013.4
20260905071326 76 274 0.0 0.0 0.00 0.00 0.00 91 1013.4
20260905070800 76 274 0.0 0.0 0.00 0.00 0.00 91 1013.5
20260905070249 76 274 0.0 0.0 0.00 0.00 0.00 91 1013.5
20260905065159 76 274 0.0 0.0 0.00 0.00 0.00 91 1013.5
20260905064656 77 274 0.0 0.0 0.00 0.00 0.00 91 1013.5
20260905064206 77 274 0.0 0.0 0.00 0.00 0.00 91 1013.5
20260905063646 77 274 0.0 0.0 0.00 0.00 0.00 91 1013.6
20260905063136 77 274 0.0 0.0 0.00 0.00 0.00 90 1013.6
20260905062636 77 274 0.0 0.0 0.00 0.00 0.00 90 1013.6
20260905062136 77 274 0.0 0.0 0.00 0.00 0.00 90 1013.6
20260905061620 77 274 0.0 0.0 0.00 0.00 0.00 90 1013.6
20260905061119 77 274 0.0 0.0 0.00 0.00 0.00 89 1013.7
20260905060109 77 274 0.0 0.0 0.00 0.00 0.00 89 1013.7
20260905055552 77 274 0.0 0.0 0.00 0.00 0.00 89 1013.7
20260905055041 77 274 0.0 0.0 0.00 0.00 0.00 89 1013.8
20260905054514 77 274 0.0 0.0 0.00 0.00 0.00 89 1013.7
20260905054010 77 274 0.0 0.0 0.00 0.00 0.00 89 1013.7
20260905053507 78 274 0.0 0.0 0.00 0.00 0.00 89 1013.7
20260905052940 78 274 0.0 0.0 0.00 0.00 0.00 90 1013.6
20260905052436 78 274 0.0 0.0 0.00 0.00 0.00 90 1013.7
20260905051926 78 274 0.0 0.0 0.00 0.00 0.00 90 1013.8
20260905051401 78 274 0.0 0.0 0.00 0.00 0.00 89 1013.8
20260905050835 78 274 0.0 0.0 0.00 0.00 0.00 89 1013.7
20260905050326 78 274 0.0 0.0 0.00 0.00 0.00 89 1013.7
20260905045321 78 274 0.0 0.0 0.00 0.00 0.00 90 1013.8
20260905044809 78 274 0.0 0.0 0.00 0.00 0.00 89 1013.8
20260905044250 78 274 0.0 0.0 0.00 0.00 0.00 89 1013.8
20260905043740 79 274 0.0 0.0 0.00 0.00 0.00 89 1013.9
20260905043233 79 274 0.0 0.0 0.00 0.00 0.00 89 1013.9
20260905042711 79 274 0.0 0.0 0.00 0.00 0.00 89 1013.8
20260905042208 79 274 0.0 0.0 0.00 0.00 0.00 89 1013.8
20260905041655 79 274 0.0 0.0 0.00 0.00 0.00 88 1013.7
20260905041134 79 274 0.0 0.0 0.00 0.00 0.00 88 1013.9
20260905040042 79 274 0.0 0.0 0.00 0.00 0.00 88 1013.8
20260905035520 79 274 0.0 0.0 0.00 0.00 0.00 88 1013.9
20260905034948 79 274 0.0 0.0 0.00 0.00 0.00 87 1013.8
20260905034442 79 274 0.0 0.0 0.00 0.00 0.00 86 1013.8
20260905033915 80 274 0.0 0.0 0.00 0.00 0.00 86 1013.8
20260905033412 80 274 0.0 0.0 0.00 0.00 0.00 86 1013.8
20260905032913 80 274 0.0 0.0 0.00 0.00 0.00 86 1013.8
20260905032411 80 274 0.0 0.0 0.00 0.00 0.00 86 1013.8
20260905031910 80 274 0.0 0.0 0.00 0.00 0.00 85 1013.9
20260905030846 80 274 0.0 0.0 0.00 0.00 0.00 85 1013.9
20260905030316 80 274 0.0 0.0 0.00 0.00 0.00 86 1014.0
20260905025757 80 274 0.0 0.0 0.00 0.00 0.00 86 1014.1
20260905025257 80 274 0.0 0.0 0.00 0.00 0.00 85 1014.2
20260905024755 80 274 0.0 0.0 0.00 0.00 0.00 85 1014.3
20260905024257 80 274 0.0 0.0 0.00 0.00 0.00 85 1014.3
20260905023731 80 274 0.0 0.0 0.00 0.00 0.00 85 1014.3
20260905023202 81 274 0.0 0.0 0.00 0.00 0.00 84 1014.3
20260905022701 81 274 0.0 0.0 0.00 0.00 0.00 83 1014.2
20260905022157 81 274 0.0 0.0 0.00 0.00 0.00 83 1014.3
20260905021143 81 274 0.0 0.0 0.00 0.00 0.00 82 1014.1
20260905020626 82 274 0.0 0.0 0.00 0.00 0.00 82 1014.1
20260905020127 82 274 0.0 0.0 0.00 0.00 0.00 81 1014.1
20260905015629 82 274 0.0 0.0 0.00 0.00 0.00 81 1014.1
20260905015102 82 274 0.0 0.0 0.00 0.00 0.00 80 1014.0
20260905014539 82 274 0.0 0.0 0.00 0.00 0.00 78 1013.9
20260905014039 83 274 0.0 0.0 0.00 0.00 0.00 78 1013.9
20260905013010 83 274 0.0 0.0 0.00 0.00 0.00 77 1013.8
20260905012442 84 274 0.0 0.0 0.00 0.00 0.00 77 1013.9
20260905011415 84 274 0.0 0.0 0.00 0.00 0.00 75 1013.6
20260905010905 84 274 0.0 0.0 0.00 0.00 0.00 74 1013.6
20260905005850 85 274 0.0 0.0 0.00 0.00 0.00 73 1013.5
20260905004819 86 274 0.0 0.0 0.00 0.00 0.00 74 1013.5
20260905004321 86 274 0.0 0.0 0.00 0.00 0.00 71 1013.5
20260905003802 86 274 0.0 0.0 0.00 0.00 0.00 71 1013.5
20260905003236 87 274 0.0 0.0 0.00 0.00 0.00 70 1013.5
20260905002219 88 274 0.0 0.0 0.00 0.00 0.00 68 1013.5
20260905001638 88 274 0.0 0.0 0.00 0.00 0.00 67 1013.5
20260905001111 89 274 0.0 0.0 0.00 0.00 0.00 66 1013.5
20260905000602 89 274 0.0 0.0 0.00 0.00 0.00 66 1013.5
20260905000035 89 274 0.0 0.0 0.00 0.00 0.00 65 1013.5
20260904235531 89 274 0.0 0.0 0.00 0.00 0.00 64 1013.5
20260904234527 90 274 0.0 0.0 0.00 0.00 0.00 63 1013.6
20260904234012 91 274 0.0 0.0 0.00 0.00 0.00 62 1013.6
20260904233513 91 274 0.0 0.0 0.00 0.00 0.00 61 1013.5
20260904233009 91 274 0.0 0.0 0.00 0.00 0.00 61 1013.5
20260904232506 92 274 0.0 0.0 0.00 0.00 0.00 61 1013.3
20260904231947 92 274 0.0 0.0 0.00 0.00 0.00 58 1013.3
20260904231447 92 274 0.0 0.0 0.00 0.00 0.00 59 1013.3
20260904230946 92 274 0.0 0.0 0.00 0.00 0.00 57 1013.2
20260904225939 93 274 0.0 0.0 0.00 0.00 0.00 57 1013.0
20260904225437 94 274 0.0 0.0 0.00 0.00 0.00 55 1013.0
20260904224910 94 274 0.0 0.0 0.00 0.00 0.00 55 1013.0
20260904224407 94 274 0.0 0.0 0.00 0.00 0.00 54 1013.0
20260904223346 94 242 0.0 1.0 0.00 0.00 0.00 53 1013.0
20260904222840 94 21 0.0 0.0 0.00 0.00 0.00 54 1012.9
20260904222340 94 269 0.0 0.0 0.00 0.00 0.00 53 1012.8
20260904220806 94 203 0.0 2.0 0.00 0.00 0.00 51 1012.8
20260904220311 94 232 0.0 2.0 0.00 0.00 0.00 51 1012.7
20260904215733 94 240 0.0 0.0 0.00 0.00 0.00 52 1012.7
20260904215207 94 240 0.0 0.0 0.00 0.00 0.00 53 1012.6
20260904214147 95 168 0.0 0.0 0.00 0.00 0.00 52 1012.7
20260904213646 95 172 0.0 0.0 0.00 0.00 0.00 52 1012.7
20260904213115 95 148 0.0 0.0 0.00 0.00 0.00 51 1012.8
20260904212613 95 148 0.0 2.0 0.00 0.00 0.00 50 1012.8
20260904212114 95 303 0.0 2.0 0.00 0.00 0.00 51 1012.8
20260904211550 95 242 0.0 4.0 0.00 0.00 0.00 51 1012.8
20260904211049 95 194 0.0 4.0 0.00 0.00 0.00 51 1012.8
20260904210525 95 257 0.0 1.0 0.00 0.00 0.00 51 1012.9
20260904205521 96 196 0.0 0.0 0.00 0.00 0.00 51 1012.8
20260904205003 96 230 0.0 4.0 0.00 0.00 0.00 51 1012.9
20260904204502 95 256 0.0 0.0 0.00 0.00 0.00 50 1013.0
20260904203940 95 121 0.0 4.0 0.00 0.00 0.00 51 1013.1
20260904202932 95 243 0.0 0.0 0.00 0.00 0.00 52 1013.2
20260904202434 95 296 0.0 0.0 0.00 0.00 0.00 52 1013.3
20260904201909 95 296 0.0 0.0 0.00 0.00 0.00 52 1013.3
20260904201359 96 220 0.0 0.0 0.00 0.00 0.00 51 1013.5
20260904200845 96 333 0.0 0.0 0.00 0.00 0.00 50 1013.5
20260904200345 96 333 0.0 0.0 0.00 0.00 0.00 51 1013.6
20260904194713 96 254 0.0 1.0 0.00 0.00 0.00 51 1013.8
20260904194211 97 253 0.0 1.0 0.00 0.00 0.00 50 1014.0
20260904193708 97 218 0.0 0.0 0.00 0.00 0.00 51 1013.9
20260904193206 97 155 0.0 1.0 0.00 0.00 0.00 51 1014.1
20260904192705 97 164 0.0 5.0 0.00 0.00 0.00 51 1014.2
20260904192143 97 269 0.0 5.0 0.00 0.00 0.00 50 1014.3
20260904191040 97 240 0.0 1.0 0.00 0.00 0.00 50 1014.5